Location: *
(45.5224°N, 122.7471°W)
Time: 04:47:20
(UTC+00:00)

ADEOS II - Pass Details

Date: 09 April 2020
Orbit: 799 x 802 km, 98.5° (Epoch: 25 May)

Event Time Altitude Azimuth Distance (km) Brightness Sun altitude
Rises 12:19:27 0° 359° (N) 3,322 5.7 -13.3°
Reaches altitude 10° 12:22:37 10° 339° (NNW) 2,386 4.6 -12.9°
Maximum altitude 12:25:46 16° 302° (WNW) 1,971 3.8 -12.4°
Enters shadow 12:28:05 13° 273° (W) 2,198 3.8 -12.0°
